EHI
0 0 0 0 0 0 0 0 0 0 0 0 1 5 11 22 40 56 65 69 68 64 61 62 64 64 62 59 55 50 44 37 30 24 20 16 11 10 11 8 6 5 2 1
0 0 0 0 0 0 0 0 0 0 0 0 1 5 11 20 35 50 60 66 68 67 64 64 65 64 62 60 55 47 39 33 28 24 19 14 9 9 10 8 6 6 4 4
0 0 0 0 0 0 0 0 0 0 0 0 1 4 10 18 27 40 50 59 66 68 68 66 65 63 61 57 50 42 35 29 26 22 17 12 7 6 8 8 7 6 5 4
0 0 0 0 0 0 0 0 0 0 0 0 1 2 7 16 26 35 45 54 62 67 66 62 59 58 56 50 42 36 31 27 24 21 18 12 6 4 6 7 7 5 3 2
0 0 0 0 0 0 0 0 0 0 0 0 0 0 4 14 26 35 44 52 58 61 58 51 47 47 47 44 38 33 28 24 22 20 18 12 6 4 5 5 4 3 1 0
0 0 0 0 0 0 0 0 0 0 0 0 0 0 2 8 19 31 41 48 53 54 50 42 35 36 39 38 34 29 25 21 18 17 16 12 7 4 4 3 3 3 2 1
0 0 0 0 0 0 0 0 0 0 0 0 0 0 0 3 12 26 40 47 50 50 45 36 31 30 32 32 29 25 21 19 16 14 14 12 9 5 3 3 3 3 3 3
0 0 0 0 0 0 0 0 0 0 0 0 0 0 0 4 13 26 40 49 50 47 38 30 28 28 27 26 24 19 17 17 16 14 13 12 10 7 4 3 3 3 3 3
0 0 0 0 0 0 0 0 0 0 0 0 0 0 1 8 19 31 42 48 47 41 32 26 25 24 21 20 19 17 15 16 17 16 14 12 10 9 5 3 3 3 3 2
0 0 0 0 0 0 0 0 0 0 0 0 0 0 1 9 21 33 41 46 45 41 34 28 24 21 18 16 15 14 14 14 15 15 14 12 11 9 6 3 2 2 1 1
0 0 0 0 0 0 0 0 0 0 0 0 0 0 1 6 15 26 37 42 44 44 39 31 24 19 18 15 12 10 10 11 12 13 14 13 11 8 5 3 2 1 0 0
0 0 0 0 0 0 0 0 0 0 0 0 0 0 1 5 12 23 34 41 44 45 39 30 24 19 15 12 10 8 8 9 10 12 13 13 11 8 6 6 5 3 2 1
0 0 0 0 0 0 0 0 0 0 0 0 0 0 2 5 12 23 34 43 48 47 38 28 23 18 11 8 8 8 10 10 11 12 13 13 11 10 9 9 8 6 4 3
0 0 0 0 0 0 0 0 0 0 0 0 0 1 2 6 11 22 34 45 52 50 39 28 22 16 10 7 9 11 11 11 11 11 11 11 11 11 10 9 8 7 5 5
0 0 0 0 0 0 0 0 0 0 0 0 0 1 3 7 13 23 36 47 53 49 40 33 26 19 14 11 12 13 12 11 11 11 11 9 9 10 9 8 6 5 5 5
0 0 0 0 0 0 0 0 0 0 0 0 1 2 6 12 18 26 38 50 54 48 41 39 35 28 22 19 16 15 14 12 13 14 13 10 10 9 8 6 5 4 4 4
0 0 0 0 0 0 0 0 1 2 2 1 2 6 13 19 25 29 37 48 54 49 44 43 40 34 29 26 20 17 15 15 15 16 15 14 13 11 8 7 6 4 4 4
0 0 0 0 0 0 0 0 2 4 5 4 6 14 22 29 34 35 37 44 51 49 46 43 38 35 33 29 22 18 16 15 15 16 15 15 13 10 8 8 7 6 4 4
0 0 0 0 0 0 0 0 2 7 9 10 14 22 29 35 40 40 39 43 48 47 43 38 33 30 29 25 22 19 16 15 14 14 12 11 10 8 6 6 6 6 5 4
0 0 0 0 0 0 0 1 3 7 11 13 18 24 28 31 35 36 36 38 40 39 35 31 27 23 19 17 17 16 14 13 12 11 9 7 6 5 4 3 3 4 4 4
0 0 0 0 0 0 1 2 2 5 9 14 18 21 24 24 26 29 30 29 27 26 25 25 23 19 14 10 9 8 7 6 6 6 5 4 3 2 1 1 1 2 2 2
0 0 0 0 0 0 1 2 2 3 8 13 16 18 20 21 21 24 24 21 18 17 17 19 19 17 12 8 5 3 2 1 2 2 1 1 1 1 0 0 0 1 1 1
0 0 0 0 0 0 2 3 3 4 10 14 15 15 17 18 19 19 18 16 15 14 14 14 15 13 9 7 4 3 2 1 1 1 0 0 0 0 0 0 0 0 0 0
0 0 0 0 0 1 3 4 5 7 12 16 16 14 14 15 14 13 12 11 11 11 11 11 11 9 8 6 4 3 3 3 2 2 1 1 0 0 0 0 0 0 0 0
0 0 0 0 0 0 2 3 5 8 12 16 16 14 12 11 9 7 6 6 7 7 7 8 8 7 6 5 4 3 3 3 3 4 3 2 1 0 0 0 0 0 0 0
0 0 0 0 0 0 1 2 5 7 10 13 14 13 10 7 4 3 3 4 5 5 5 5 6 5 5 5 4 3 3 3 4 4 2 2 1 1 0 0 0 0 0 0
Wind_Speed
2 1 5 8 8 8 6 7 8 9 5 1 2 3 4 6 9 10 10 10 9 10 8 8 8 9 9 8 9 9 9 8 6 4 4 4 3 3 3 3 5 6 6 6
2 7 12 9 8 8 7 6 7 7 5 2 1 0 2 5 9 13 14 13 11 9 8 8 8 9 9 9 8 8 8 8 8 5 4 3 4 3 3 3 4 5 6 6
8 9 5 7 9 8 7 5 5 5 6 6 4 5 3 2 2 7 10 11 12 13 13 11 10 8 8 9 9 9 9 8 7 6 4 3 3 2 2 2 3 5 6 6
8 11 10 9 9 6 7 8 4 2 3 4 2 1 6 2 1 5 7 8 10 11 10 9 9 8 8 8 7 7 8 8 7 7 6 7 6 5 5 4 4 4 5 6
8 5 6 9 10 6 8 7 2 1 2 3 3 2 6 1 2 5 9 10 10 11 11 10 9 8 7 7 7 7 7 7 7 7 8 8 5 4 3 4 5 4 4 5
9 7 5 7 7 6 4 3 7 7 6 2 4 2 6 5 8 9 9 10 9 10 10 8 7 7 6 6 6 7 7 6 6 7 8 8 7 6 6 5 5 4 3 3
7 9 7 5 5 6 2 6 5 6 5 5 4 2 8 8 7 10 11 10 10 10 10 10 9 8 7 7 7 6 7 6 6 7 7 7 7 7 7 6 6 5 4 3
4 8 7 5 8 6 4 10 8 5 4 5 4 2 6 4 3 6 8 9 9 9 9 9 10 9 8 8 7 7 7 6 6 6 6 6 6 5 4 5 5 5 4 5
6 8 7 7 7 9 5 5 9 8 2 1 4 4 5 2 6 8 9 10 9 9 8 8 8 8 8 8 7 7 7 5 6 6 6 5 6 6 5 5 4 4 4 4
9 5 9 6 2 4 9 8 7 6 3 2 4 3 5 4 6 7 9 10 9 8 7 7 7 7 7 6 5 5 6 6 5 6 5 5 5 5 5 4 5 5 5 5
9 7 8 4 2 5 4 5 6 6 6 6 3 7 7 8 8 9 9 10 10 10 9 8 7 6 7 6 6 5 5 4 4 5 5 5 4 4 4 4 4 4 4 4
10 8 6 8 7 6 7 8 9 6 5 6 5 8 6 7 8 8 8 9 10 10 9 8 7 6 6 6 6 6 5 5 5 5 5 5 5 4 4 3 3 3 3 4
10 8 3 7 8 3 2 4 7 7 6 5 5 7 3 3 5 7 9 10 10 9 9 7 7 7 7 7 6 5 5 6 5 5 5 5 4 4 4 3 3 3 3 3
9 7 9 11 8 3 1 1 4 7 5 5 7 7 4 4 6 8 10 11 10 9 8 8 7 8 7 7 6 6 5 5 5 5 5 5 4 4 4 3 3 3 3 3
7 5 5 5 5 2 1 3 2 4 8 9 9 9 11 10 10 11 11 11 12 11 10 10 9 8 8 7 6 6 6 5 6 6 5 5 4 4 3 3 3 3 3 3
4 4 3 1 2 3 2 4 4 4 4 6 6 6 7 7 7 8 10 13 13 12 12 11 10 9 9 8 8 7 6 6 6 6 5 5 4 4 4 3 3 3 3 3
2 4 4 1 2 5 3 4 3 5 5 6 8 8 7 7 10 12 11 11 12 12 11 11 10 10 9 8 8 7 6 6 6 6 5 5 5 5 4 4 4 4 4 4
5 4 4 2 2 4 10 5 2 2 4 1 4 7 10 9 6 4 7 10 10 9 10 9 8 7 6 6 6 6 6 6 6 6 5 6 6 5 5 5 4 4 4 4
6 7 4 4 3 5 7 5 1 1 3 3 5 8 9 10 9 5 2 7 9 8 8 8 8 7 6 7 7 7 6 5 6 6 6 6 6 6 6 5 5 4 5 5
4 6 6 4 4 6 7 5 2 5 1 3 4 9 9 7 6 3 2 6 8 7 7 8 8 7 7 6 6 7 6 5 5 5 5 5 6 7 7 6 5 4 5 5
2 3 4 4 4 6 6 5 3 3 6 3 4 7 6 4 6 7 7 7 8 8 8 7 8 7 5 5 7 7 5 4 4 5 5 5 5 6 6 6 5 6 6 6
4 4 4 4 4 7 5 4 3 5 3 3 5 5 7 9 9 9 9 9 9 9 8 7 8 6 4 5 6 6 4 3 4 5 6 5 5 5 6 6 6 6 6 7
2 5 5 6 6 4 1 3 2 4 5 4 5 6 11 10 9 8 8 7 7 8 7 7 8 7 5 4 5 5 3 4 6 6 5 5 5 5 6 6 6 6 5 5
3 1 3 3 1 2 4 5 5 5 5 4 6 8 10 10 9 8 7 6 6 6 7 6 7 7 4 3 4 3 3 5 6 6 5 5 5 5 5 4 4 5 5 5
2 2 3 2 0 3 5 4 4 6 8 8 7 7 7 10 8 7 6 6 6 7 6 6 6 5 4 3 4 3 3 5 6 6 5 5 5 5 5 5 3 3 2 4
1 2 3 3 4 3 1 1 4 7 6 7 8 8 6 7 8 8 7 5 6 6 6 6 6 5 4 3 3 3 3 4 6 5 5 4 5 5 6 6 6 10 7 8
Wind_Direction
242 112 235 236 218 221 256 282 290 285 291 77 147 171 185 163 151 151 153 159 163 167 170 161 153 153 150 153 156 158 156 160 154 153 156 155 161 164 166 181 176 169 170 165
353 258 241 242 254 253 264 279 290 300 320 25 85 125 196 176 167 164 163 165 165 160 161 160 158 158 161 164 164 161 163 165 168 168 164 161 154 170 172 181 180 179 175 171
215 244 248 245 260 267 276 258 267 290 337 12 58 3 342 324 130 161 160 160 162 166 167 167 165 167 166 171 174 171 169 173 176 167 148 136 121 118 144 174 181 186 180 179
244 251 260 264 260 246 267 260 258 318 22 317 60 316 293 286 146 155 160 162 170 170 164 165 168 173 176 179 174 167 168 173 177 171 167 164 170 177 183 178 181 182 182 182
246 247 244 248 247 234 235 246 269 3 69 360 0 116 280 312 185 187 179 174 175 170 169 172 176 176 172 170 169 167 168 175 180 179 177 173 179 181 165 162 173 181 190 191
256 271 245 237 255 245 239 24 22 39 62 349 276 162 264 228 204 192 182 176 171 168 167 168 167 164 167 165 167 169 171 180 181 179 176 176 179 175 167 173 179 184 191 194
291 283 266 256 278 306 81 81 28 359 9 260 278 191 247 251 207 182 177 173 166 162 164 166 166 173 172 170 171 173 175 181 180 179 180 180 179 178 182 183 184 183 188 194
234 275 255 226 199 204 187 138 155 192 224 278 322 258 265 268 150 139 151 149 156 162 167 170 173 174 173 172 172 176 179 182 182 179 182 177 174 176 186 187 183 187 194 198
203 255 271 254 212 170 176 177 169 144 185 293 288 288 313 34 104 127 140 143 162 164 166 171 169 172 167 166 171 173 175 179 181 180 173 171 174 180 188 187 185 191 196 198
180 253 283 282 248 200 171 159 102 116 154 246 284 259 227 208 161 150 148 163 169 155 158 168 170 169 162 161 163 164 164 173 172 167 172 173 177 181 180 180 189 192 197 193
172 199 282 339 210 204 165 146 126 132 154 156 231 267 230 198 184 167 169 171 163 158 161 166 170 162 153 147 149 157 158 154 156 165 168 163 165 166 168 178 187 186 188 181
176 161 237 257 254 213 181 178 149 155 211 166 171 263 268 189 177 161 161 162 161 160 163 160 154 150 147 153 156 161 164 161 167 167 163 162 162 164 167 177 184 179 177 177
158 143 187 317 329 338 182 178 163 144 136 160 171 256 287 152 151 154 152 153 153 159 159 154 152 156 160 162 163 166 170 169 167 160 159 158 161 164 168 175 173 169 170 169
132 130 166 196 211 222 255 241 157 132 157 200 209 218 243 204 169 168 157 154 155 157 158 157 159 161 165 168 165 165 169 168 162 155 156 162 170 171 175 172 166 165 161 161
107 132 164 184 197 171 234 285 261 192 191 188 214 200 212 203 179 170 163 153 155 163 164 164 166 166 166 163 165 164 166 163 158 154 160 170 166 155 146 139 137 131 133 144
66 116 105 44 38 56 340 303 293 265 221 204 182 218 219 179 152 159 165 159 162 169 169 167 165 165 166 167 165 164 164 163 156 156 162 157 145 140 137 136 130 124 123 120
58 104 102 247 357 40 295 250 263 282 262 197 201 214 164 151 164 171 167 161 164 167 164 164 166 169 168 168 164 164 163 157 152 153 152 146 143 139 139 136 126 126 123 115
131 107 125 140 81 227 245 249 222 285 310 265 167 167 158 155 151 147 150 153 156 156 155 159 157 151 149 149 149 150 145 146 148 147 148 147 143 141 137 131 129 124 116 115
140 131 118 125 175 261 288 293 253 164 330 334 134 137 129 120 86 44 90 137 140 140 143 140 136 135 133 135 138 134 136 140 142 147 151 152 148 144 139 134 128 123 117 112
95 111 119 132 162 219 247 277 275 99 354 308 139 145 146 125 119 186 158 128 124 119 119 121 119 113 116 124 124 123 131 136 146 154 153 149 149 149 148 142 134 123 118 115
51 74 135 158 193 247 262 297 51 127 219 254 151 150 144 135 152 150 124 109 112 108 109 113 112 112 118 123 120 123 129 140 146 137 131 129 132 136 135 129 126 122 117 112
173 160 179 155 181 245 294 34 112 193 188 127 112 118 112 110 113 119 113 111 113 109 107 111 109 104 107 117 123 125 135 141 131 126 125 124 125 128 127 123 119 120 124 120
170 184 181 178 201 244 315 115 135 131 121 124 120 124 122 119 119 117 112 111 111 115 114 111 114 112 99 101 117 128 133 131 129 124 125 125 122 121 127 130 130 126 125 128
316 357 109 89 27 15 46 67 67 81 98 102 114 121 122 120 122 117 115 110 105 103 110 112 112 111 108 104 102 110 124 131 133 132 131 129 131 126 121 123 133 138 141 142
274 16 67 88 245 34 24 42 68 71 81 87 89 95 110 117 118 117 115 111 108 105 103 107 112 117 118 110 101 99 113 128 131 133 134 132 131 131 121 102 83 118 128 156
258 153 144 199 219 157 210 0 81 85 86 98 99 86 89 107 114 110 107 104 103 105 107 107 108 111 116 116 116 114 124 135 138 139 141 140 135 132 128 120 89 55 70 92